Wind_Speed
37 39 41 43 44 46 48 49 51 52 52 53 53 53 53 54 55 55 55 56 56 56 57 57 57 57 58 58 58 58 59 59 58 58 59 59 59 60 59 59 59 58 57
40 41 43 45 46 48 50 52 53 54 54 56 56 57 57 58 58 58 58 58 58 58 58 57 57 57 56 56 56 56 57 57 57 56 56 57 57 57 56 56 55 54 52
42 44 45 47 48 50 52 53 54 55 56 57 58 59 59 60 60 60 60 59 58 58 57 57 56 55 55 55 54 54 54 54 54 54 53 53 53 53 52 51 49 47 45
44 45 47 48 49 51 52 53 54 55 56 58 59 60 60 60 60 59 59 58 57 56 55 55 54 53 53 53 52 53 52 52 52 51 51 51 50 49 47 45 42 41 41
44 45 46 47 49 50 52 53 55 57 58 59 59 59 59 59 58 58 57 56 55 54 54 53 53 53 52 52 52 51 51 50 49 49 47 46 44 42 40 39 38 37 36
45 46 48 50 51 53 54 55 56 56 57 57 57 57 57 56 56 56 55 54 54 53 53 53 52 52 51 51 50 49 48 46 45 44 41 39 37 36 35 34 33 32 31
45 46 48 49 50 50 52 53 53 54 54 55 55 54 54 54 54 54 53 53 53 53 52 52 51 50 48 47 46 44 42 41 39 37 34 33 31 30 29 28 28 28 28
43 45 46 47 48 50 51 51 52 52 53 53 53 53 52 52 52 52 52 51 51 50 49 48 46 45 43 42 40 38 36 34 31 28 27 26 25 24 24 24 24 25 26
44 45 45 46 47 47 48 49 49 50 50 50 50 50 50 50 50 50 49 47 46 45 44 42 40 38 36 33 31 30 28 26 24 22 21 20 19 19 20 21 22 23 24
42 43 43 44 44 45 46 46 47 47 48 48 47 47 47 46 46 45 43 41 40 38 36 34 32 29 27 25 24 22 20 19 18 15 15 15 15 16 17 18 20 21 22
40 40 41 42 43 43 44 45 45 45 45 44 44 44 42 41 39 38 37 35 32 29 27 25 23 21 20 18 16 15 13 12 11 11 11 12 13 14 15 17 19 21 21
38 39 40 41 42 42 42 41 41 40 40 39 38 37 36 34 33 31 29 26 23 21 19 17 15 13 11 11 10 8 8 8 8 8 9 10 11 13 15 16 18 19 20
37 38 38 39 39 38 37 36 35 34 34 33 33 32 30 28 26 23 20 18 15 13 11 9 8 7 6 6 5 5 5 5 6 6 8 9 11 13 15 16 17 18 19
34 35 35 34 34 32 31 31 30 29 29 28 27 25 23 21 18 15 13 11 9 7 5 4 4 4 4 4 4 5 5 6 7 7 9 10 12 14 14 15 16 18 18
31 31 30 29 28 27 26 26 26 25 24 23 21 19 16 14 11 9 7 6 4 4 4 4 4 5 5 6 6 7 8 8 9 9 10 12 13 14 15 15 16 17 17
28 27 26 24 23 22 22 21 21 20 19 18 15 13 10 8 6 5 4 5 5 5 5 6 7 7 8 8 9 9 10 10 10 11 12 13 14 15 16 16 17 17 17
24 23 22 20 19 19 18 18 18 17 16 14 12 10 8 7 7 7 7 7 7 7 8 8 9 10 10 11 11 11 12 12 12 13 13 14 15 16 17 17 17 17 17
21 20 18 17 17 16 15 15 15 14 12 11 11 10 9 9 9 10 9 9 9 9 10 11 12 12 12 13 12 12 12 12 13 14 14 15 16 17 17 17 17 17 17
18 17 16 15 14 14 13 13 13 12 12 11 11 11 11 11 11 11 11 11 11 12 12 13 13 13 14 13 13 12 12 12 13 14 15 16 17 18 18 18 18 18 18
16 15 14 13 13 12 12 12 12 12 12 11 11 12 12 12 12 12 13 13 14 14 14 14 14 14 14 13 13 12 12 13 13 14 15 16 17 18 18 18 18 18 18
13 12 12 12 12 12 12 13 13 12 12 12 12 12 13 13 13 14 14 14 15 15 15 14 14 14 14 13 13 13 13 13 13 14 15 16 17 18 18 18 18 18 18
11 11 12 12 12 12 12 13 12 12 12 12 13 13 14 14 14 14 15 15 15 15 14 14 14 14 13 13 13 13 13 13 14 15 16 17 18 18 18 18 18 18 19
10 11 11 11 12 12 12 12 12 13 13 13 13 14 14 14 15 15 15 14 14 14 13 13 13 13 13 13 13 13 14 14 15 15 16 17 18 18 18 18 18 19 19
11 11 11 11 11 12 12 12 12 13 13 13 13 13 14 14 15 15 14 14 13 13 12 12 12 12 12 13 13 13 14 15 15 16 17 17 18 19 19 18 18 19 19
11 11 11 11 11 11 11 12 12 12 13 13 13 13 13 13 14 14 13 13 12 12 12 12 12 12 12 13 13 14 14 15 16 17 17 18 18 19 20 20 19 19 20
12 11 11 11 11 11 11 11 11 12 12 12 12 12 13 12 12 12 12 12 12 12 12 12 12 13 13 13 14 14 15 15 16 17 17 18 18 19 20 20 20 20 20
Wind_Direction
265 267 269 272 274 277 279 281 283 285 287 289 289 289 290 291 291 291 291 291 290 290 290 289 289 289 288 288 288 288 288 288 288 288 288 288 288 289 289 290 290 291 290
266 268 271 273 275 277 279 281 283 285 286 287 288 289 290 291 290 290 291 291 291 291 290 290 289 289 289 288 288 288 288 289 289 288 288 289 290 291 291 291 291 291 291
268 270 272 274 276 278 280 282 283 283 284 286 287 289 290 290 291 291 291 291 291 291 291 290 290 290 289 289 289 289 289 289 290 290 289 290 291 291 292 292 292 292 292
271 273 274 276 278 280 280 282 283 284 286 287 288 289 290 290 291 291 291 291 291 291 291 290 290 290 290 290 290 290 290 290 290 290 290 291 291 291 292 293 293 293 294
274 276 278 279 281 282 282 283 284 286 287 288 289 290 290 290 291 291 291 291 291 291 291 291 291 291 290 290 290 290 290 289 290 291 292 292 291 292 293 294 295 296 296
275 278 280 282 282 283 283 284 285 287 288 289 290 291 291 291 291 291 291 291 291 291 291 291 291 291 291 291 290 290 290 290 291 292 292 292 293 294 296 298 299 299 300
280 281 283 284 285 286 286 286 289 291 292 292 292 292 292 292 292 291 291 291 291 291 291 291 291 291 291 290 290 290 290 291 291 291 291 293 294 295 298 300 303 305 306
286 286 286 287 288 290 291 291 292 292 292 292 292 293 293 293 293 293 292 292 292 292 292 292 292 291 291 290 290 290 290 290 290 290 292 293 295 298 302 306 308 311 312
289 290 291 291 292 293 293 293 293 294 294 294 294 294 294 294 294 294 294 294 293 293 292 292 292 292 292 292 291 291 291 291 292 293 293 295 299 303 308 312 316 317 319
292 293 294 295 295 296 296 296 296 296 296 296 295 296 296 296 296 296 296 296 295 294 294 293 293 293 293 293 292 292 292 294 295 296 299 302 305 309 315 319 322 324 325
297 298 298 298 298 299 299 298 298 298 298 297 298 298 298 298 298 298 298 297 297 297 296 295 295 294 294 294 294 296 297 298 301 305 309 312 315 320 324 327 330 333 334
301 301 302 302 301 301 301 301 301 300 300 300 301 301 301 301 300 300 300 300 300 299 298 299 299 298 298 300 304 308 311 313 317 321 325 328 332 334 335 336 338 340 342
305 305 306 306 306 306 305 304 304 304 304 304 304 304 303 302 302 302 302 303 304 305 307 308 308 310 314 323 333 342 346 348 349 350 349 349 347 345 344 344 344 346 349
311 311 311 311 311 310 310 309 309 309 309 310 310 309 308 307 306 306 306 308 313 319 326 335 343 353 6 23 29 32 32 28 21 14 9 3 358 354 352 352 352 353 354
315 315 315 316 316 316 316 315 316 317 318 318 317 317 316 316 317 318 322 333 348 4 19 33 39 48 54 52 53 54 51 44 36 29 21 15 10 5 2 1 1 0 1
321 321 321 321 322 322 323 325 326 328 329 330 331 334 337 342 349 3 24 37 45 54 59 63 66 68 67 67 66 62 56 51 45 38 31 23 17 13 10 8 7 6 6
328 328 328 328 329 331 333 334 336 339 343 348 356 4 14 27 40 51 59 62 66 67 71 75 76 76 76 74 70 66 61 55 48 40 32 24 19 16 14 13 12 12 11
334 334 335 336 335 337 340 343 347 353 0 9 18 29 41 50 58 64 68 68 70 75 79 80 80 82 79 75 71 66 60 53 45 38 31 25 21 19 17 15 15 14 14
339 340 343 345 347 350 353 358 3 11 18 27 37 45 52 59 64 68 69 74 78 81 82 83 84 83 77 72 67 61 56 49 43 37 31 27 24 21 20 18 18 18 18
346 351 358 2 5 9 13 16 21 26 33 41 48 55 61 64 67 72 76 81 82 83 85 86 84 80 75 69 63 58 54 48 42 37 32 27 25 23 21 20 20 21 23
2 8 13 16 19 21 23 26 30 35 42 50 58 62 65 69 73 78 82 83 83 85 85 83 80 76 71 66 61 56 50 45 41 38 32 27 24 23 22 21 22 23 25
15 21 22 22 24 26 28 31 36 43 51 59 65 69 72 74 78 80 82 83 84 83 81 79 75 70 66 61 56 51 46 42 38 36 32 28 24 23 23 24 25 26 29
21 22 23 25 28 31 35 40 46 53 59 64 69 73 75 77 78 80 81 82 83 81 78 74 69 65 60 57 53 50 46 43 39 37 33 29 26 26 27 27 28 30 32
25 27 30 33 36 39 45 50 55 59 63 68 71 74 76 78 78 79 80 80 79 76 72 68 64 61 57 55 53 50 47 45 42 39 36 33 32 32 33 34 35 37 38
35 37 38 41 44 48 52 57 60 63 67 70 72 75 77 77 78 77 76 75 73 70 68 65 62 59 58 57 55 52 48 45 42 40 40 39 39 39 40 42 43 43 44
41 41 43 46 48 51 55 59 63 66 68 71 73 76 77 76 75 74 74 72 69 67 65 63 62 61 60 58 54 50 47 44 44 44 43 43 44 46 46 46 46 47 47
Height
5790 5789 5788 5786 5784 5782 5780 5778 5776 5773 5770 5767 5764 5760 5757 5754 5750 5746 5743 5739 5735 5730 5726 5722 5718 5713 5709 5704 5699 5695 5690 5686 5683 5679 5672 5666 5661 5656 5651 5646 5641 5636 5631
5781 5780 5778 5776 5774 5772 5769 5767 5764 5761 5758 5754 5751 5747 5744 5740 5736 5732 5728 5724 5720 5715 5711 5707 5702 5698 5693 5689 5684 5680 5675 5670 5667 5663 5658 5652 5647 5641 5637 5632 5626 5621 5616
5771 5769 5768 5766 5763 5760 5758 5754 5751 5748 5745 5741 5737 5733 5729 5725 5721 5717 5713 5709 5704 5700 5696 5691 5687 5683 5678 5674 5670 5665 5661 5656 5652 5648 5643 5638 5633 5628 5623 5618 5613 5608 5603
5760 5758 5756 5754 5751 5748 5745 5742 5738 5735 5731 5727 5723 5719 5715 5711 5706 5702 5698 5694 5689 5685 5680 5676 5672 5668 5664 5660 5655 5651 5647 5642 5638 5633 5629 5625 5620 5615 5610 5606 5602 5597 5592
5748 5746 5744 5741 5739 5736 5732 5729 5725 5721 5717 5713 5708 5704 5700 5696 5691 5687 5682 5678 5674 5670 5665 5661 5657 5654 5649 5645 5641 5637 5632 5628 5624 5620 5616 5612 5607 5603 5599 5595 5591 5587 5583
5736 5734 5732 5729 5726 5722 5719 5715 5711 5707 5702 5698 5694 5690 5685 5681 5676 5672 5667 5663 5659 5655 5651 5646 5643 5639 5635 5631 5627 5623 5619 5615 5611 5608 5604 5600 5597 5593 5589 5586 5582 5578 5575
5726 5723 5720 5717 5713 5709 5705 5701 5697 5692 5688 5684 5679 5675 5670 5666 5661 5657 5653 5648 5644 5640 5636 5632 5628 5624 5621 5617 5614 5610 5606 5603 5600 5597 5594 5591 5588 5585 5582 5579 5574 5570 5567
5714 5711 5707 5704 5700 5696 5692 5688 5683 5678 5674 5670 5665 5661 5656 5651 5646 5642 5638 5634 5629 5625 5621 5618 5614 5611 5608 5604 5601 5598 5595 5593 5590 5588 5586 5583 5581 5578 5575 5572 5569 5565 5560
5702 5699 5695 5692 5688 5683 5679 5674 5670 5665 5660 5656 5651 5646 5642 5638 5633 5628 5624 5620 5616 5612 5608 5605 5602 5599 5596 5593 5591 5589 5587 5585 5583 5581 5579 5577 5575 5573 5570 5567 5564 5560 5555
5692 5688 5684 5680 5676 5671 5666 5662 5657 5652 5647 5642 5638 5633 5628 5624 5620 5615 5611 5607 5604 5600 5597 5594 5592 5590 5587 5585 5583 5582 5580 5579 5578 5576 5575 5573 5571 5569 5566 5563 5560 5555 5551
5681 5677 5673 5668 5664 5659 5654 5649 5644 5639 5634 5630 5625 5621 5616 5612 5608 5604 5601 5597 5594 5591 5588 5586 5585 5583 5581 5580 5578 5577 5576 5575 5574 5573 5572 5571 5568 5566 5563 5560 5556 5552 5547
5671 5667 5662 5657 5653 5648 5643 5637 5632 5627 5623 5618 5614 5610 5606 5602 5599 5595 5592 5589 5587 5585 5583 5581 5580 5578 5577 5576 5575 5575 5574 5573 5572 5571 5570 5568 5566 5564 5561 5557 5553 5549 5544
5661 5657 5651 5646 5641 5636 5632 5627 5623 5618 5613 5609 5605 5601 5597 5594 5591 5588 5586 5584 5582 5580 5579 5578 5577 5576 5576 5575 5574 5573 5572 5572 5571 5570 5569 5567 5565 5562 5559 5555 5551 5547 5543
5652 5647 5642 5637 5632 5628 5623 5619 5615 5610 5606 5602 5598 5594 5591 5588 5585 5583 5582 5580 5579 5578 5577 5577 5576 5576 5575 5574 5574 5573 5572 5571 5571 5569 5568 5566 5564 5561 5558 5554 5550 5546 5542
5645 5640 5635 5631 5626 5621 5617 5613 5609 5604 5600 5596 5593 5589 5586 5584 5582 5581 5579 5579 5578 5578 5577 5577 5576 5576 5576 5575 5574 5574 5573 5572 5571 5570 5568 5566 5564 5561 5557 5554 5550 5546 5542
5639 5634 5630 5626 5622 5617 5613 5609 5605 5601 5597 5593 5590 5587 5584 5582 5581 5580 5580 5579 5579 5578 5578 5578 5578 5577 5577 5576 5576 5575 5575 5574 5573 5571 5569 5567 5564 5561 5557 5554 5550 5546 5542
5635 5630 5626 5622 5618 5615 5611 5607 5603 5599 5596 5592 5589 5587 5585 5583 5582 5582 5581 5581 5581 5580 5580 5580 5580 5579 5579 5579 5578 5578 5577 5576 5575 5573 5571 5568 5565 5562 5558 5555 5551 5547 5543
5632 5628 5624 5620 5617 5613 5610 5606 5603 5599 5596 5593 5591 5588 5587 5586 5585 5584 5584 5584 5583 5583 5583 5583 5583 5583 5582 5582 5581 5581 5580 5579 5577 5575 5573 5570 5567 5563 5560 5556 5552 5548 5544
5631 5627 5623 5619 5616 5613 5609 5606 5603 5600 5598 5595 5593 5592 5590 5589 5588 5588 5587 5587 5587 5586 5586 5586 5586 5586 5586 5585 5584 5584 5582 5581 5579 5577 5575 5572 5569 5565 5562 5558 5554 5550 5546
5629 5626 5622 5619 5616 5613 5610 5608 5605 5602 5600 5598 5596 5595 5594 5593 5592 5592 5591 5591 5590 5590 5590 5590 5590 5590 5589 5589 5588 5587 5585 5584 5582 5579 5577 5574 5571 5567 5564 5560 5556 5552 5548
5630 5626 5624 5621 5618 5615 5613 5610 5607 5605 5603 5602 5600 5599 5598 5597 5596 5596 5595 5595 5595 5595 5595 5595 5594 5594 5593 5592 5591 5590 5588 5586 5584 5582 5579 5576 5573 5570 5566 5562 5558 5555 5551
5630 5628 5625 5623 5620 5618 5615 5613 5610 5608 5607 5605 5604 5603 5602 5602 5601 5600 5600 5600 5599 5599 5599 5599 5598 5597 5597 5595 5594 5593 5591 5589 5587 5584 5581 5579 5575 5572 5568 5565 5561 5557 5554
5632 5630 5627 5625 5622 5620 5618 5616 5614 5612 5611 5609 5608 5608 5607 5606 5606 5605 5605 5604 5604 5604 5603 5603 5602 5601 5600 5599 5597 5596 5594 5592 5589 5587 5584 5581 5578 5574 5571 5567 5564 5560 5557
5634 5632 5629 5627 5625 5623 5621 5619 5618 5616 5615 5614 5613 5612 5612 5611 5610 5610 5609 5609 5608 5608 5607 5606 5606 5605 5603 5602 5600 5599 5597 5594 5592 5589 5587 5584 5581 5577 5574 5571 5567 5564 5560
5636 5634 5632 5630 5628 5626 5624 5623 5622 5620 5619 5618 5618 5617 5616 5616 5615 5614 5614 5613 5613 5612 5611 5610 5609 5608 5607 5605 5604 5602 5600 5598 5595 5593 5590 5587 5584 5581 5578 5575 5571 5568 5565
5639 5637 5635 5633 5631 5629 5628 5627 5626 5625 5624 5623 5622 5621 5621 5620 5619 5619 5618 5617 5616 5616 5615 5614 5613 5611 5610 5609 5607 5606 5604 5601 5599 5596 5594 5591 5588 5585 5582 5579 5576 5573 5570